Time,TemperatureF,DewpointF,PressureIn,WindDirection,WindDirectionDegrees,WindSpeedMPH,WindSpeedGustMPH,Humidity,HourlyPrecipIn,Conditions,Clouds,dailyrainin,SolarRadiationWatts/m^2,SoftwareType,DateUTC
2013-10-04 00:32:00,55.5,49.4,29.79,SW,226,0.0,0.0,80,0.00,,,0.00,0,WeatherCatV1.21B27,2013-10-04 04:32:00,
2013-10-04 00:33:00,55.5,49.4,29.79,SW,226,0.0,0.0,80,0.00,,,0.00,0,WeatherCatV1.21B27,2013-10-04 04:33:00,
2013-10-04 00:35:00,55.5,49.4,29.79,SW,226,0.0,0.0,80,0.00,,,0.00,0,WeatherCatV1.21B27,2013-10-04 04:35:00,
2013-10-04 00:36:00,55.5,49.4,29.79,SW,226,0.0,0.0,80,0.00,,,0.00,0,WeatherCatV1.21B27,2013-10-04 04:36:00,
2013-10-04 00:38:00,55.5,49.4,29.79,SW,226,0.0,0.0,80,0.00,,,0.00,0,WeatherCatV1.21B27,2013-10-04 04:38:00,
2013-10-04 00:43:00,55.5,49.4,29.78,SW,226,0.0,0.0,80,0.00,,,0.00,0,WeatherCatV1.21B27,2013-10-04 04:43:00,
2013-10-04 00:44:00,55.5,49.4,29.79,SW,226,0.0,0.0,80,0.00,,,0.00,0,WeatherCatV1.21B27,2013-10-04 04:44:00,
2013-10-04 00:45:00,55.5,49.8,29.79,SW,226,0.0,0.0,81,0.00,,,0.00,0,WeatherCatV1.21B27,2013-10-04 04:45:00,
2013-10-04 00:48:00,55.4,49.7,29.79,SW,226,0.0,0.0,81,0.00,,,0.00,0,WeatherCatV1.21B27,2013-10-04 04:48:00,
2013-10-04 00:52:00,55.5,49.8,29.78,SW,226,0.0,0.0,81,0.00,,,0.00,0,WeatherCatV1.21B27,2013-10-04 04:52:00,
2013-10-04 00:56:00,55.5,49.8,29.79,SW,226,0.0,0.0,81,0.00,,,0.00,0,WeatherCatV1.21B27,2013-10-04 04:56:00,
2013-10-04 00:57:00,55.5,49.8,29.79,SW,226,0.0,0.0,81,0.00,,,0.00,0,WeatherCatV1.21B27,2013-10-04 04:57:00,
2013-10-04 01:02:00,55.5,49.8,29.79,SW,226,0.0,0.0,81,0.00,,,0.00,0,WeatherCatV1.21B27,2013-10-04 05:02:00,
2013-10-04 01:05:00,55.6,49.9,29.79,SW,226,0.0,0.0,81,0.00,,,0.00,0,WeatherCatV1.21B27,2013-10-04 05:05:00,
2013-10-04 01:06:00,55.6,49.9,29.79,SW,226,0.0,0.0,81,0.00,,,0.00,0,WeatherCatV1.21B27,2013-10-04 05:06:00,
2013-10-04 01:11:00,55.6,49.9,29.79,SW,226,0.0,0.0,81,0.00,,,0.00,0,WeatherCatV1.21B27,2013-10-04 05:11:00,
2013-10-04 01:14:00,55.6,49.9,29.79,SW,226,0.0,0.0,81,0.00,,,0.00,0,WeatherCatV1.21B27,2013-10-04 05:14:00,
2013-10-04 01:16:00,55.7,50.0,29.79,SW,226,0.0,0.0,81,0.00,,,0.00,0,WeatherCatV1.21B27,2013-10-04 05:16:00,
2013-10-04 01:18:00,55.7,50.0,29.79,SW,226,0.0,0.0,81,0.00,,,0.00,0,WeatherCatV1.21B27,2013-10-04 05:18:00,
2013-10-04 01:25:00,55.7,50.0,29.79,SW,226,0.0,0.0,81,0.00,,,0.00,0,WeatherCatV1.21B27,2013-10-04 05:25:00,
2013-10-04 01:31:00,55.8,50.1,29.78,SW,226,0.0,0.0,81,0.00,,,0.00,0,WeatherCatV1.21B27,2013-10-04 05:31:00,
2013-10-04 01:36:00,55.9,50.2,29.78,SW,226,0.0,0.0,81,0.00,,,0.00,0,WeatherCatV1.21B27,2013-10-04 05:36:00,
2013-10-04 01:41:00,55.9,50.2,29.78,SW,226,0.0,0.0,81,0.00,,,0.00,0,WeatherCatV1.21B27,2013-10-04 05:41:00,
2013-10-04 01:46:00,55.9,50.2,29.78,SW,226,0.0,0.0,81,0.00,,,0.00,0,WeatherCatV1.21B27,2013-10-04 05:46:00,
2013-10-04 01:51:00,55.9,50.2,29.78,SW,226,0.0,0.0,81,0.00,,,0.00,0,WeatherCatV1.21B27,2013-10-04 05:51:00,
2013-10-04 01:56:00,56.0,50.2,29.79,SW,226,0.0,0.0,81,0.00,,,0.00,0,WeatherCatV1.21B27,2013-10-04 05:56:00,
2013-10-04 02:01:00,55.9,50.2,29.78,SW,226,0.0,0.0,81,0.00,,,0.00,0,WeatherCatV1.21B27,2013-10-04 06:01:00,
2013-10-04 02:06:00,55.9,50.2,29.78,SW,226,0.0,0.0,81,0.00,,,0.00,0,WeatherCatV1.21B27,2013-10-04 06:06:00,
2013-10-04 02:11:00,55.9,49.8,29.78,SW,226,0.0,0.0,80,0.00,,,0.00,0,WeatherCatV1.21B27,2013-10-04 06:11:00,
2013-10-04 02:16:00,55.9,49.8,29.78,SW,226,0.0,0.0,80,0.00,,,0.00,0,WeatherCatV1.21B27,2013-10-04 06:16:00,
2013-10-04 02:21:00,55.8,50.1,29.78,SW,226,0.0,0.0,81,0.00,,,0.00,0,WeatherCatV1.21B27,2013-10-04 06:21:00,
2013-10-04 02:26:00,55.7,50.0,29.78,SW,226,0.0,0.0,81,0.00,,,0.00,0,WeatherCatV1.21B27,2013-10-04 06:26:00,
2013-10-04 02:31:00,55.7,50.0,29.78,SW,226,0.0,0.0,81,0.00,,,0.00,0,WeatherCatV1.21B27,2013-10-04 06:31:00,
2013-10-04 02:36:00,55.6,49.9,29.78,SW,226,0.0,0.0,81,0.00,,,0.00,0,WeatherCatV1.21B27,2013-10-04 06:36:00,
2013-10-04 02:41:00,55.5,49.8,29.78,SW,226,0.0,0.0,81,0.00,,,0.00,0,WeatherCatV1.21B27,2013-10-04 06:41:00,
2013-10-04 02:46:00,55.5,49.8,29.78,SW,226,0.0,0.0,81,0.00,,,0.00,0,WeatherCatV1.21B27,2013-10-04 06:46:00,
2013-10-04 02:51:00,55.4,49.7,29.78,SW,226,0.0,0.0,81,0.00,,,0.00,0,WeatherCatV1.21B27,2013-10-04 06:51:00,
2013-10-04 02:56:00,55.4,49.7,29.77,SW,226,0.0,0.0,81,0.00,,,0.00,0,WeatherCatV1.21B27,2013-10-04 06:56:00,
2013-10-04 03:01:00,55.4,49.7,29.77,SW,226,0.0,0.0,81,0.00,,,0.00,0,WeatherCatV1.21B27,2013-10-04 07:01:00,
2013-10-04 03:06:00,55.3,49.6,29.77,SW,226,0.0,0.0,81,0.00,,,0.00,0,WeatherCatV1.21B27,2013-10-04 07:06:00,
2013-10-04 03:11:00,55.2,49.5,29.77,SW,226,0.0,0.0,81,0.00,,,0.00,0,WeatherCatV1.21B27,2013-10-04 07:11:00,
2013-10-04 03:16:00,55.3,49.6,29.77,SW,226,0.0,0.0,81,0.00,,,0.00,0,WeatherCatV1.21B27,2013-10-04 07:16:00,
2013-10-04 03:21:00,55.2,49.5,29.77,SW,226,0.0,0.0,81,0.00,,,0.00,0,WeatherCatV1.21B27,2013-10-04 07:21:00,
2013-10-04 03:26:00,55.2,49.5,29.77,SW,226,0.0,0.0,81,0.00,,,0.00,0,WeatherCatV1.21B27,2013-10-04 07:26:00,
2013-10-04 03:31:00,55.1,49.4,29.77,SW,226,0.0,0.0,81,0.00,,,0.00,0,WeatherCatV1.21B27,2013-10-04 07:31:00,
2013-10-04 03:36:00,55.0,49.3,29.77,SW,226,0.0,0.0,81,0.00,,,0.00,0,WeatherCatV1.21B27,2013-10-04 07:36:00,
2013-10-04 03:41:00,54.9,49.5,29.77,SW,226,0.0,0.0,82,0.00,,,0.00,0,WeatherCatV1.21B27,2013-10-04 07:41:00,
2013-10-04 03:46:00,54.8,49.4,29.77,SW,226,0.0,0.0,82,0.00,,,0.00,0,WeatherCatV1.21B27,2013-10-04 07:46:00,
2013-10-04 03:51:00,54.7,49.3,29.77,SW,226,0.0,0.0,82,0.00,,,0.00,0,WeatherCatV1.21B27,2013-10-04 07:51:00,
2013-10-04 03:56:00,54.6,49.2,29.77,SW,226,0.0,0.0,82,0.00,,,0.00,0,WeatherCatV1.21B27,2013-10-04 07:56:00,
2013-10-04 04:01:00,54.6,49.2,29.77,SW,226,0.0,0.0,82,0.00,,,0.00,0,WeatherCatV1.21B27,2013-10-04 08:01:00,
2013-10-04 04:06:00,54.5,49.1,29.78,SW,226,0.0,0.0,82,0.00,,,0.00,0,WeatherCatV1.21B27,2013-10-04 08:06:00,
2013-10-04 04:11:00,54.4,49.0,29.78,SW,226,0.0,0.0,82,0.00,,,0.00,0,WeatherCatV1.21B27,2013-10-04 08:11:00,
2013-10-04 04:16:00,54.4,49.3,29.78,SW,226,0.0,0.0,83,0.00,,,0.00,0,WeatherCatV1.21B27,2013-10-04 08:16:00,
2013-10-04 04:21:00,54.3,49.2,29.78,SW,226,0.0,0.0,83,0.00,,,0.00,0,WeatherCatV1.21B27,2013-10-04 08:21:00,
2013-10-04 04:26:00,54.2,49.2,29.78,SW,226,0.0,0.0,83,0.00,,,0.00,0,WeatherCatV1.21B27,2013-10-04 08:26:00,
2013-10-04 04:31:00,54.2,49.2,29.78,SW,226,0.0,0.0,83,0.00,,,0.00,0,WeatherCatV1.21B27,2013-10-04 08:31:00,
2013-10-04 04:36:00,54.1,49.0,29.78,SW,226,0.0,0.0,83,0.00,,,0.00,0,WeatherCatV1.21B27,2013-10-04 08:36:00,
2013-10-04 04:41:00,54.1,49.0,29.78,SW,226,0.0,0.0,83,0.00,,,0.00,0,WeatherCatV1.21B27,2013-10-04 08:41:00,
2013-10-04 04:46:00,54.0,49.0,29.78,SW,226,0.0,0.0,83,0.00,,,0.00,0,WeatherCatV1.21B27,2013-10-04 08:46:00,
2013-10-04 04:51:00,53.9,48.9,29.78,SW,226,0.0,0.0,83,0.00,,,0.00,0,WeatherCatV1.21B27,2013-10-04 08:51:00,
2013-10-04 04:56:00,53.9,48.9,29.78,SW,226,0.0,0.0,83,0.00,,,0.00,0,WeatherCatV1.21B27,2013-10-04 08:56:00,
2013-10-04 05:01:00,53.7,48.7,29.78,SW,226,0.0,0.0,83,0.00,,,0.00,0,WeatherCatV1.21B27,2013-10-04 09:01:00,
2013-10-04 05:06:00,53.6,48.6,29.78,SW,226,0.0,0.0,83,0.00,,,0.00,0,WeatherCatV1.21B27,2013-10-04 09:06:00,
2013-10-04 05:11:00,53.5,48.5,29.78,SW,226,0.0,0.0,83,0.00,,,0.00,0,WeatherCatV1.21B27,2013-10-04 09:11:00,
2013-10-04 05:16:00,53.3,48.3,29.78,SW,226,0.0,0.0,83,0.00,,,0.00,0,WeatherCatV1.21B27,2013-10-04 09:16:00,
2013-10-04 05:21:00,53.2,48.2,29.78,SW,226,0.0,0.0,83,0.00,,,0.00,0,WeatherCatV1.21B27,2013-10-04 09:21:00,
2013-10-04 05:26:00,53.0,48.0,29.78,SW,226,0.0,0.0,83,0.00,,,0.00,0,WeatherCatV1.21B27,2013-10-04 09:26:00,
2013-10-04 05:31:00,52.9,47.9,29.78,SW,226,0.0,0.0,83,0.00,,,0.00,0,WeatherCatV1.21B27,2013-10-04 09:31:00,
2013-10-04 05:36:00,52.7,47.7,29.78,SW,226,0.0,0.0,83,0.00,,,0.00,0,WeatherCatV1.21B27,2013-10-04 09:36:00,
2013-10-04 05:41:00,52.6,47.6,29.78,SW,226,0.0,0.0,83,0.00,,,0.00,0,WeatherCatV1.21B27,2013-10-04 09:41:00,
2013-10-04 05:46:00,52.4,47.7,29.78,SW,226,0.0,0.0,84,0.00,,,0.00,0,WeatherCatV1.21B27,2013-10-04 09:46:00,
2013-10-04 05:51:00,52.3,47.6,29.78,SW,226,0.0,0.0,84,0.00,,,0.00,0,WeatherCatV1.21B27,2013-10-04 09:51:00,
2013-10-04 05:56:00,52.0,47.3,29.78,SW,226,0.0,0.0,84,0.00,,,0.00,0,WeatherCatV1.21B27,2013-10-04 09:56:00,
2013-10-04 06:01:00,51.9,47.2,29.78,SW,226,0.0,0.0,84,0.00,,,0.00,0,WeatherCatV1.21B27,2013-10-04 10:01:00,
2013-10-04 06:06:00,51.7,47.0,29.78,SW,226,0.0,0.0,84,0.00,,,0.00,0,WeatherCatV1.21B27,2013-10-04 10:06:00,
2013-10-04 06:11:00,51.5,46.8,29.78,SW,226,0.0,0.0,84,0.00,,,0.00,0,WeatherCatV1.21B27,2013-10-04 10:11:00,
2013-10-04 06:16:00,51.4,47.0,29.78,SW,226,0.0,0.0,85,0.00,,,0.00,0,WeatherCatV1.21B27,2013-10-04 10:16:00,
2013-10-04 06:21:00,51.2,46.8,29.78,SW,226,0.0,0.0,85,0.00,,,0.00,0,WeatherCatV1.21B27,2013-10-04 10:21:00,
2013-10-04 06:26:00,51.1,46.8,29.78,SW,226,0.0,0.0,85,0.00,,,0.00,0,WeatherCatV1.21B27,2013-10-04 10:26:00,
2013-10-04 06:31:00,51.0,47.0,29.78,SW,226,0.0,0.0,86,0.00,,,0.00,0,WeatherCatV1.21B27,2013-10-04 10:31:00,
2013-10-04 06:36:00,50.8,46.8,29.78,SW,226,0.0,0.0,86,0.00,,,0.00,0,WeatherCatV1.21B27,2013-10-04 10:36:00,
2013-10-04 06:41:00,50.7,46.7,29.79,SW,226,0.0,0.0,86,0.00,,,0.00,0,WeatherCatV1.21B27,2013-10-04 10:41:00,
2013-10-04 06:46:00,50.6,46.6,29.79,SW,226,0.0,0.0,86,0.00,,,0.00,0,WeatherCatV1.21B27,2013-10-04 10:46:00,
2013-10-04 06:51:00,50.5,46.5,29.79,SW,226,0.0,0.0,86,0.00,,,0.00,5,WeatherCatV1.21B27,2013-10-04 10:51:00,
2013-10-04 06:56:00,50.3,46.3,29.79,SW,226,0.0,0.0,86,0.00,,,0.00,11,WeatherCatV1.21B27,2013-10-04 10:56:00,
2013-10-04 07:01:00,50.3,46.3,29.80,SW,226,0.0,0.0,86,0.00,,,0.00,12,WeatherCatV1.21B27,2013-10-04 11:01:00,
2013-10-04 07:06:00,50.2,46.2,29.80,SW,226,0.0,0.0,86,0.00,,,0.00,11,WeatherCatV1.21B27,2013-10-04 11:06:00,
2013-10-04 07:11:00,50.2,46.5,29.80,SW,226,0.0,0.0,87,0.00,,,0.00,11,WeatherCatV1.21B27,2013-10-04 11:11:00,
2013-10-04 07:16:00,50.2,46.5,29.80,SW,226,0.0,0.0,87,0.00,,,0.00,12,WeatherCatV1.21B27,2013-10-04 11:16:00,
2013-10-04 07:21:00,50.3,46.9,29.79,SW,226,0.0,0.0,88,0.00,,,0.00,14,WeatherCatV1.21B27,2013-10-04 11:21:00,
2013-10-04 07:26:00,50.3,46.9,29.79,SW,226,0.0,0.0,88,0.00,,,0.00,21,WeatherCatV1.21B27,2013-10-04 11:26:00,
2013-10-04 07:31:00,50.3,46.9,29.79,SW,226,0.0,0.0,88,0.00,,,0.00,26,WeatherCatV1.21B27,2013-10-04 11:31:00,
2013-10-04 07:36:00,50.4,47.0,29.79,SW,226,0.0,0.0,88,0.00,,,0.00,40,WeatherCatV1.21B27,2013-10-04 11:36:00,
2013-10-04 07:41:00,50.5,47.4,29.79,SW,226,0.0,0.0,89,0.00,,,0.00,54,WeatherCatV1.21B27,2013-10-04 11:41:00,
2013-10-04 07:46:00,50.7,47.6,29.79,SW,226,0.0,0.0,89,0.00,,,0.00,53,WeatherCatV1.21B27,2013-10-04 11:46:00,
2013-10-04 07:51:00,50.9,47.8,29.79,SW,226,0.0,0.0,89,0.00,,,0.00,62,WeatherCatV1.21B27,2013-10-04 11:51:00,
2013-10-04 07:56:00,51.2,48.1,29.80,SW,226,0.0,0.0,89,0.00,,,0.00,70,WeatherCatV1.21B27,2013-10-04 11:56:00,
2013-10-04 08:01:00,51.4,48.6,29.80,SW,226,0.0,0.0,90,0.00,,,0.00,72,WeatherCatV1.21B27,2013-10-04 12:01:00,
2013-10-04 08:06:00,51.7,48.9,29.80,SW,226,0.0,0.0,90,0.00,,,0.00,86,WeatherCatV1.21B27,2013-10-04 12:06:00,
2013-10-04 08:11:00,52.1,49.3,29.80,SW,226,0.0,0.0,90,0.00,,,0.00,220,WeatherCatV1.21B27,2013-10-04 12:11:00,
2013-10-04 08:16:00,53.1,50.5,29.81,SW,226,0.0,0.0,91,0.00,,,0.00,274,WeatherCatV1.21B27,2013-10-04 12:16:00,
2013-10-04 08:21:00,56.6,52.5,29.81,SW,226,0.0,0.0,86,0.00,,,0.00,127,WeatherCatV1.21B27,2013-10-04 12:21:00,
2013-10-04 08:26:00,57.4,52.6,29.80,SW,226,0.0,0.0,84,0.00,,,0.00,104,WeatherCatV1.21B27,2013-10-04 12:26:00,
2013-10-04 08:31:00,57.5,52.4,29.80,SW,226,0.0,0.0,83,0.00,,,0.00,74,WeatherCatV1.21B27,2013-10-04 12:31:00,
2013-10-04 08:36:00,57.6,52.5,29.80,SW,226,0.0,0.0,83,0.00,,,0.00,76,WeatherCatV1.21B27,2013-10-04 12:36:00,
2013-10-04 08:41:00,57.8,52.7,29.80,SW,226,0.0,1.0,83,0.00,,,0.00,79,WeatherCatV1.21B27,2013-10-04 12:41:00,
2013-10-04 08:46:00,57.9,52.8,29.81,SW,226,0.0,0.0,83,0.00,,,0.00,63,WeatherCatV1.21B27,2013-10-04 12:46:00,
2013-10-04 08:51:00,58.2,53.1,29.81,SW,226,0.0,0.0,83,0.00,,,0.00,65,WeatherCatV1.21B27,2013-10-04 12:51:00,
2013-10-04 08:56:00,58.4,53.2,29.82,SW,226,0.0,0.0,83,0.00,,,0.00,62,WeatherCatV1.21B27,2013-10-04 12:56:00,
2013-10-04 09:01:00,58.6,53.5,29.81,SW,226,1.0,1.0,83,0.00,,,0.00,86,WeatherCatV1.21B27,2013-10-04 13:01:00,
2013-10-04 09:06:00,59.0,53.8,29.81,SW,226,0.0,0.0,83,0.00,,,0.00,100,WeatherCatV1.21B27,2013-10-04 13:06:00,
2013-10-04 09:11:00,59.0,53.8,29.81,SW,226,0.0,0.0,83,0.00,,,0.00,81,WeatherCatV1.21B27,2013-10-04 13:11:00,
2013-10-04 09:16:00,59.0,53.5,29.81,SW,226,0.0,0.0,82,0.00,,,0.00,65,WeatherCatV1.21B27,2013-10-04 13:16:00,
2013-10-04 09:21:00,59.2,53.7,29.81,SW,226,0.0,0.0,82,0.00,,,0.00,60,WeatherCatV1.21B27,2013-10-04 13:21:00,
2013-10-04 09:26:00,59.5,54.0,29.82,SW,226,0.0,0.0,82,0.00,,,0.00,58,WeatherCatV1.21B27,2013-10-04 13:26:00,
2013-10-04 09:31:00,59.6,54.1,29.82,SW,226,0.0,0.0,82,0.00,,,0.00,63,WeatherCatV1.21B27,2013-10-04 13:31:00,
2013-10-04 09:36:00,59.9,54.0,29.81,SW,226,0.0,1.0,81,0.00,,,0.00,111,WeatherCatV1.21B27,2013-10-04 13:36:00,
2013-10-04 09:41:00,60.1,54.2,29.82,NW,306,2.0,2.0,81,0.00,,,0.00,132,WeatherCatV1.21B27,2013-10-04 13:41:00,
2013-10-04 09:46:00,60.3,54.1,29.81,NW,306,2.0,2.0,80,0.00,,,0.00,183,WeatherCatV1.21B27,2013-10-04 13:46:00,
2013-10-04 09:51:00,60.9,54.0,29.82,NW,306,0.0,1.0,78,0.00,,,0.00,83,WeatherCatV1.21B27,2013-10-04 13:51:00,
2013-10-04 09:56:00,61.1,53.8,29.82,NW,306,1.0,1.0,77,0.00,,,0.00,91,WeatherCatV1.21B27,2013-10-04 13:56:00,
2013-10-04 10:01:00,61.1,53.5,29.82,NW,306,0.0,2.0,76,0.00,,,0.00,91,WeatherCatV1.21B27,2013-10-04 14:01:00,
2013-10-04 10:06:00,61.2,53.2,29.81,NW,309,0.0,3.0,75,0.00,,,0.00,83,WeatherCatV1.21B27,2013-10-04 14:06:00,
2013-10-04 10:11:00,61.3,52.9,29.81,NNW,338,0.0,2.0,74,0.00,,,0.00,90,WeatherCatV1.21B27,2013-10-04 14:11:00,
2013-10-04 10:16:00,61.3,52.9,29.81,NNW,328,1.0,1.0,74,0.00,,,0.00,144,WeatherCatV1.21B27,2013-10-04 14:16:00,
2013-10-04 10:21:00,61.4,52.7,29.81,NW,323,3.0,4.0,73,0.00,,,0.00,83,WeatherCatV1.21B27,2013-10-04 14:21:00,
2013-10-04 10:26:00,61.4,52.7,29.81,NW,314,0.0,2.0,73,0.00,,,0.00,62,WeatherCatV1.21B27,2013-10-04 14:26:00,
2013-10-04 10:31:00,61.5,52.8,29.81,NW,314,0.0,2.0,73,0.00,,,0.00,60,WeatherCatV1.21B27,2013-10-04 14:31:00,
2013-10-04 10:36:00,61.5,52.8,29.81,NW,315,0.0,0.0,73,0.00,,,0.00,42,WeatherCatV1.21B27,2013-10-04 14:36:00,
2013-10-04 10:41:00,61.6,52.9,29.81,NW,315,0.0,1.0,73,0.00,,,0.00,30,WeatherCatV1.21B27,2013-10-04 14:41:00,
2013-10-04 10:46:00,61.6,53.2,29.81,NW,315,0.0,0.0,74,0.00,,,0.00,28,WeatherCatV1.21B27,2013-10-04 14:46:00,
2013-10-04 10:51:00,61.7,53.3,29.81,NW,315,0.0,0.0,74,0.00,,,0.00,21,WeatherCatV1.21B27,2013-10-04 14:51:00,
2013-10-04 10:56:00,61.7,54.0,29.82,NW,314,0.0,0.0,76,0.00,,,0.00,23,WeatherCatV1.21B27,2013-10-04 14:56:00,
2013-10-04 11:01:00,61.7,54.0,29.82,NW,315,0.0,1.0,76,0.00,,,0.00,37,WeatherCatV1.21B27,2013-10-04 15:01:00,
2013-10-04 11:06:00,61.6,54.3,29.82,NW,314,0.0,1.0,77,0.00,,,0.00,51,WeatherCatV1.21B27,2013-10-04 15:06:00,
2013-10-04 11:11:00,61.6,54.7,29.81,NW,314,1.0,1.0,78,0.00,,,0.00,104,WeatherCatV1.21B27,2013-10-04 15:11:00,
2013-10-04 11:16:00,61.5,54.9,29.81,NW,315,0.0,1.0,79,0.00,,,0.00,107,WeatherCatV1.21B27,2013-10-04 15:16:00,
2013-10-04 11:17:00,61.5,54.9,29.81,NW,315,0.0,2.0,79,0.00,,,0.00,107,WeatherCatV1.21B27,2013-10-04 15:17:00,
2013-10-04 11:22:00,61.3,55.1,29.82,NW,315,0.0,1.0,80,0.00,,,0.00,70,WeatherCatV1.21B27,2013-10-04 15:22:00,
2013-10-04 11:27:00,61.1,54.9,29.81,NW,307,0.0,4.0,80,0.00,,,0.00,65,WeatherCatV1.21B27,2013-10-04 15:27:00,
2013-10-04 11:32:00,60.9,54.7,29.81,NW,308,0.0,0.0,80,0.00,,,0.00,83,WeatherCatV1.21B27,2013-10-04 15:32:00,
2013-10-04 11:37:00,60.9,55.0,29.82,NW,308,0.0,1.0,81,0.00,,,0.00,93,WeatherCatV1.21B27,2013-10-04 15:37:00,
2013-10-04 11:42:00,60.8,54.9,29.82,NW,307,0.0,1.0,81,0.00,,,0.00,190,WeatherCatV1.21B27,2013-10-04 15:42:00,
2013-10-04 11:47:00,60.8,54.9,29.81,NW,308,0.0,2.0,81,0.00,,,0.00,120,WeatherCatV1.21B27,2013-10-04 15:47:00,
2013-10-04 11:52:00,60.8,54.9,29.81,NW,308,0.0,1.0,81,0.00,,,0.00,102,WeatherCatV1.21B27,2013-10-04 15:52:00,
2013-10-04 11:57:00,60.9,55.4,29.82,NW,310,1.0,3.0,82,0.00,,,0.00,90,WeatherCatV1.21B27,2013-10-04 15:57:00,
2013-10-04 12:02:00,60.9,55.4,29.82,NNW,330,1.0,4.0,82,0.00,,,0.00,118,WeatherCatV1.21B27,2013-10-04 16:02:00,
2013-10-04 12:07:00,60.9,55.0,29.82,NW,310,3.0,6.0,81,0.00,,,0.00,62,WeatherCatV1.21B27,2013-10-04 16:07:00,
2013-10-04 12:12:00,60.8,54.6,29.81,NW,312,1.0,3.0,80,0.00,,,0.00,79,WeatherCatV1.21B27,2013-10-04 16:12:00,
2013-10-04 12:17:00,60.7,54.5,29.81,North,0,0.0,1.0,80,0.00,,,0.00,51,WeatherCatV1.21B27,2013-10-04 16:17:00,
2013-10-04 12:22:00,60.7,54.5,29.81,NNW,332,0.0,0.0,80,0.00,,,0.00,79,WeatherCatV1.21B27,2013-10-04 16:22:00,
2013-10-04 12:27:00,60.7,54.5,29.81,NNW,331,1.0,1.0,80,0.00,,,0.00,62,WeatherCatV1.21B27,2013-10-04 16:27:00,
2013-10-04 12:32:00,60.7,54.5,29.82,NW,322,2.0,3.0,80,0.00,,,0.00,60,WeatherCatV1.21B27,2013-10-04 16:32:00,
2013-10-04 12:37:00,60.6,54.4,29.82,NW,313,0.0,0.0,80,0.00,,,0.00,42,WeatherCatV1.21B27,2013-10-04 16:37:00,
2013-10-04 12:42:00,60.6,54.4,29.81,NW,313,0.0,1.0,80,0.00,,,0.00,46,WeatherCatV1.21B27,2013-10-04 16:42:00,
2013-10-04 12:47:00,60.5,54.6,29.82,NW,313,1.0,1.0,81,0.00,,,0.00,46,WeatherCatV1.21B27,2013-10-04 16:47:00,
2013-10-04 12:52:00,60.4,54.5,29.82,NW,313,0.0,2.0,81,0.00,,,0.00,33,WeatherCatV1.21B27,2013-10-04 16:52:00,
2013-10-04 12:57:00,60.3,54.4,29.81,NW,313,1.0,2.0,81,0.00,,,0.00,32,WeatherCatV1.21B27,2013-10-04 16:57:00,
2013-10-04 13:02:00,60.1,54.6,29.81,NW,313,0.0,2.0,82,0.00,,,0.00,40,WeatherCatV1.21B27,2013-10-04 17:02:00,
2013-10-04 13:07:00,60.0,54.8,29.80,NW,313,1.0,2.0,83,0.00,,,0.00,44,WeatherCatV1.21B27,2013-10-04 17:07:00,
2013-10-04 13:12:00,59.8,54.6,29.80,NW,313,0.0,1.0,83,0.00,,,0.00,54,WeatherCatV1.21B27,2013-10-04 17:12:00,
2013-10-04 13:17:00,59.7,54.8,29.79,NW,313,0.0,0.0,84,0.00,,,0.00,60,WeatherCatV1.21B27,2013-10-04 17:17:00,
2013-10-04 13:22:00,59.7,55.2,29.79,NW,313,0.0,0.0,85,0.00,,,0.00,65,WeatherCatV1.21B27,2013-10-04 17:22:00,
2013-10-04 13:27:00,59.7,55.2,29.79,NW,313,0.0,0.0,85,0.00,,,0.00,51,WeatherCatV1.21B27,2013-10-04 17:27:00,
2013-10-04 13:32:00,59.6,55.1,29.79,NW,313,0.0,0.0,85,0.00,,,0.00,42,WeatherCatV1.21B27,2013-10-04 17:32:00,
2013-10-04 14:02:00,59.5,55.6,29.78,NW,311,0.0,0.0,87,0.04,,,0.02,88,WeatherCatV1.21B27,2013-10-04 18:02:00,
2013-10-04 14:07:00,59.5,55.6,29.78,NW,311,0.0,1.0,87,0.10,,,0.03,130,WeatherCatV1.21B27,2013-10-04 18:07:00,
2013-10-04 14:12:00,59.6,55.7,29.78,NW,311,0.0,0.0,87,0.06,,,0.03,163,WeatherCatV1.21B27,2013-10-04 18:12:00,
2013-10-04 14:17:00,59.7,55.8,29.78,NW,311,0.0,1.0,87,0.04,,,0.03,202,WeatherCatV1.21B27,2013-10-04 18:17:00,
2013-10-04 14:22:00,60.0,56.4,29.78,NW,311,0.0,1.0,88,0.00,,,0.03,294,WeatherCatV1.21B27,2013-10-04 18:22:00,
2013-10-04 14:27:00,60.0,56.1,29.78,NW,311,0.0,2.0,87,0.00,,,0.03,352,WeatherCatV1.21B27,2013-10-04 18:27:00,
2013-10-04 14:32:00,60.8,56.9,29.78,NW,308,0.0,1.0,87,0.00,,,0.03,253,WeatherCatV1.21B27,2013-10-04 18:32:00,
2013-10-04 14:37:00,61.2,57.6,29.78,NW,307,0.0,1.0,88,0.00,,,0.03,339,WeatherCatV1.21B27,2013-10-04 18:37:00,
2013-10-04 14:42:00,61.7,57.5,29.78,West,271,1.0,3.0,86,0.00,,,0.03,350,WeatherCatV1.21B27,2013-10-04 18:42:00,
2013-10-04 14:47:00,61.5,56.9,29.77,West,271,1.0,2.0,85,0.00,,,0.03,181,WeatherCatV1.21B27,2013-10-04 18:47:00,
2013-10-04 14:52:00,61.6,57.0,29.77,West,271,0.0,0.0,85,0.00,,,0.03,153,WeatherCatV1.21B27,2013-10-04 18:52:00,
2013-10-04 14:57:00,62.3,57.1,29.77,West,272,0.0,2.0,83,0.00,,,0.03,118,WeatherCatV1.21B27,2013-10-04 18:57:00,
2013-10-04 15:02:00,62.6,58.0,29.77,West,272,0.0,1.0,85,0.00,,,0.03,90,WeatherCatV1.21B27,2013-10-04 19:02:00,
2013-10-04 15:07:00,63.3,58.4,29.77,South,184,1.0,2.0,84,0.00,,,0.03,93,WeatherCatV1.21B27,2013-10-04 19:07:00,
2013-10-04 15:12:00,63.5,57.9,29.77,South,184,1.0,1.0,82,0.00,,,0.03,111,WeatherCatV1.21B27,2013-10-04 19:12:00,
2013-10-04 15:17:00,63.8,57.5,29.77,WSW,240,1.0,2.0,80,0.00,,,0.03,128,WeatherCatV1.21B27,2013-10-04 19:17:00,
2013-10-04 15:22:00,63.6,57.3,29.77,WSW,253,0.0,0.0,80,0.00,,,0.03,104,WeatherCatV1.21B27,2013-10-04 19:22:00,
2013-10-04 15:27:00,63.6,57.0,29.77,NW,317,1.0,2.0,79,0.00,,,0.03,74,WeatherCatV1.21B27,2013-10-04 19:27:00,
2013-10-04 15:32:00,63.7,57.1,29.77,NW,317,0.0,0.0,79,0.00,,,0.03,104,WeatherCatV1.21B27,2013-10-04 19:32:00,
2013-10-04 15:37:00,63.9,57.6,29.77,NW,317,0.0,0.0,80,0.00,,,0.03,104,WeatherCatV1.21B27,2013-10-04 19:37:00,
2013-10-04 15:42:00,64.0,57.3,29.77,NW,323,0.0,2.0,79,0.00,,,0.03,105,WeatherCatV1.21B27,2013-10-04 19:42:00,
2013-10-04 15:47:00,64.1,57.1,29.77,NW,321,1.0,1.0,78,0.00,,,0.03,153,WeatherCatV1.21B27,2013-10-04 19:47:00,
2013-10-04 15:52:00,64.2,57.2,29.77,NW,321,0.0,0.0,78,0.00,,,0.03,116,WeatherCatV1.21B27,2013-10-04 19:52:00,
2013-10-04 15:57:00,64.3,57.3,29.77,NW,321,0.0,0.0,78,0.00,,,0.03,97,WeatherCatV1.21B27,2013-10-04 19:57:00,
2013-10-04 16:02:00,64.4,57.4,29.77,NW,321,0.0,0.0,78,0.00,,,0.03,77,WeatherCatV1.21B27,2013-10-04 20:02:00,
2013-10-04 16:07:00,64.6,57.6,29.77,NW,321,0.0,0.0,78,0.00,,,0.03,93,WeatherCatV1.21B27,2013-10-04 20:07:00,
2013-10-04 16:12:00,64.6,57.6,29.77,NW,321,1.0,1.0,78,0.00,,,0.03,109,WeatherCatV1.21B27,2013-10-04 20:12:00,
2013-10-04 16:17:00,64.7,57.7,29.77,NW,321,0.0,2.0,78,0.00,,,0.03,104,WeatherCatV1.21B27,2013-10-04 20:17:00,
2013-10-04 16:22:00,64.7,57.7,29.77,NW,321,1.0,2.0,78,0.00,,,0.03,104,WeatherCatV1.21B27,2013-10-04 20:22:00,
2013-10-04 16:27:00,64.6,57.6,29.78,NW,321,1.0,1.0,78,0.00,,,0.03,123,WeatherCatV1.21B27,2013-10-04 20:27:00,
2013-10-04 16:32:00,64.7,58.0,29.77,NW,321,3.0,3.0,79,0.00,,,0.03,105,WeatherCatV1.21B27,2013-10-04 20:32:00,
2013-10-04 16:37:00,64.6,57.6,29.78,NNW,334,3.0,4.0,78,0.00,,,0.03,107,WeatherCatV1.21B27,2013-10-04 20:37:00,
2013-10-04 16:42:00,64.5,57.1,29.78,NNE,17,1.0,2.0,77,0.00,,,0.03,72,WeatherCatV1.21B27,2013-10-04 20:42:00,
2013-10-04 16:47:00,64.4,57.4,29.77,North,10,0.0,2.0,78,0.00,,,0.03,74,WeatherCatV1.21B27,2013-10-04 20:47:00,
2013-10-04 16:52:00,64.3,57.3,29.77,North,350,0.0,0.0,78,0.00,,,0.03,54,WeatherCatV1.21B27,2013-10-04 20:52:00,
2013-10-04 16:57:00,64.2,57.2,29.78,NNW,348,0.0,0.0,78,0.00,,,0.03,49,WeatherCatV1.21B27,2013-10-04 20:57:00,
2013-10-04 17:02:00,64.2,57.2,29.78,NNW,348,0.0,0.0,78,0.00,,,0.03,51,WeatherCatV1.21B27,2013-10-04 21:02:00,
2013-10-04 17:07:00,64.2,57.2,29.78,NNW,348,0.0,0.0,78,0.00,,,0.03,40,WeatherCatV1.21B27,2013-10-04 21:07:00,
2013-10-04 17:12:00,64.2,57.2,29.78,NNW,348,0.0,0.0,78,0.00,,,0.03,47,WeatherCatV1.21B27,2013-10-04 21:12:00,
2013-10-04 17:17:00,64.1,57.5,29.78,NNW,348,0.0,1.0,79,0.00,,,0.03,54,WeatherCatV1.21B27,2013-10-04 21:17:00,
2013-10-04 17:22:00,64.1,57.5,29.77,NNW,348,1.0,1.0,79,0.00,,,0.03,49,WeatherCatV1.21B27,2013-10-04 21:22:00,
2013-10-04 17:27:00,64.1,57.5,29.78,NNW,348,0.0,1.0,79,0.00,,,0.03,47,WeatherCatV1.21B27,2013-10-04 21:27:00,
2013-10-04 17:32:00,64.0,57.3,29.78,NNW,348,0.0,0.0,79,0.00,,,0.03,44,WeatherCatV1.21B27,2013-10-04 21:32:00,
2013-10-04 17:37:00,64.1,57.8,29.78,NNW,348,1.0,2.0,80,0.00,,,0.03,40,WeatherCatV1.21B27,2013-10-04 21:37:00,
2013-10-04 17:42:00,64.0,58.0,29.78,NNW,348,0.0,0.0,81,0.00,,,0.03,26,WeatherCatV1.21B27,2013-10-04 21:42:00,
2013-10-04 17:47:00,64.0,58.0,29.77,NNW,348,0.0,0.0,81,0.00,,,0.03,16,WeatherCatV1.21B27,2013-10-04 21:47:00,
2013-10-04 17:52:00,63.9,58.0,29.78,NNW,348,0.0,0.0,81,0.00,,,0.03,14,WeatherCatV1.21B27,2013-10-04 21:52:00,
2013-10-04 17:57:00,63.9,58.0,29.78,NNW,348,0.0,0.0,81,0.00,,,0.03,11,WeatherCatV1.21B27,2013-10-04 21:57:00,
2013-10-04 18:02:00,63.8,57.8,29.78,NNW,348,0.0,0.0,81,0.00,,,0.03,5,WeatherCatV1.21B27,2013-10-04 22:02:00,
2013-10-04 18:07:00,63.7,58.1,29.78,NNW,348,0.0,0.0,82,0.00,,,0.03,0,WeatherCatV1.21B27,2013-10-04 22:07:00,
2013-10-04 18:12:00,63.6,58.0,29.78,NNW,348,0.0,1.0,82,0.00,,,0.03,0,WeatherCatV1.21B27,2013-10-04 22:12:00,
2013-10-04 18:17:00,63.4,58.1,29.78,NNW,348,0.0,0.0,83,0.00,,,0.03,0,WeatherCatV1.21B27,2013-10-04 22:17:00,
2013-10-04 18:22:00,63.2,58.0,29.78,NNW,348,0.0,2.0,83,0.00,,,0.03,0,WeatherCatV1.21B27,2013-10-04 22:22:00,
2013-10-04 18:27:00,63.0,57.8,29.78,NNW,348,0.0,0.0,83,0.00,,,0.03,0,WeatherCatV1.21B27,2013-10-04 22:27:00,
2013-10-04 18:32:00,62.8,57.9,29.78,NNW,348,0.0,0.0,84,0.00,,,0.03,0,WeatherCatV1.21B27,2013-10-04 22:32:00,
2013-10-04 18:37:00,62.7,57.8,29.79,NNW,348,0.0,0.0,84,0.00,,,0.03,0,WeatherCatV1.21B27,2013-10-04 22:37:00,
2013-10-04 18:42:00,62.6,57.7,29.79,NNW,348,0.0,0.0,84,0.00,,,0.03,0,WeatherCatV1.21B27,2013-10-04 22:42:00,
2013-10-04 18:47:00,62.5,57.6,29.79,NNW,348,0.0,0.0,84,0.00,,,0.03,0,WeatherCatV1.21B27,2013-10-04 22:47:00,
2013-10-04 18:52:00,62.3,57.7,29.79,NNW,348,0.0,0.0,85,0.00,,,0.03,0,WeatherCatV1.21B27,2013-10-04 22:52:00,
2013-10-04 18:57:00,62.2,57.6,29.78,NNW,348,0.0,0.0,85,0.00,,,0.03,0,WeatherCatV1.21B27,2013-10-04 22:57:00,
2013-10-04 19:02:00,62.1,57.5,29.78,NNW,348,0.0,0.0,85,0.00,,,0.03,0,WeatherCatV1.21B27,2013-10-04 23:02:00,
2013-10-04 19:07:00,62.0,57.8,29.78,NNW,348,0.0,1.0,86,0.00,,,0.03,0,WeatherCatV1.21B27,2013-10-04 23:07:00,
2013-10-04 19:12:00,61.8,57.6,29.78,NNW,348,0.0,0.0,86,0.00,,,0.03,0,WeatherCatV1.21B27,2013-10-04 23:12:00,
2013-10-04 19:17:00,61.8,57.6,29.78,NNW,348,0.0,0.0,86,0.00,,,0.03,0,WeatherCatV1.21B27,2013-10-04 23:17:00,
2013-10-04 19:22:00,61.7,57.5,29.78,NNW,348,0.0,1.0,86,0.00,,,0.03,0,WeatherCatV1.21B27,2013-10-04 23:22:00,
2013-10-04 19:27:00,61.6,57.4,29.78,NNW,348,0.0,0.0,86,0.00,,,0.03,0,WeatherCatV1.21B27,2013-10-04 23:27:00,
2013-10-04 19:32:00,61.5,57.6,29.78,NNW,348,0.0,2.0,87,0.00,,,0.03,0,WeatherCatV1.21B27,2013-10-04 23:32:00,
2013-10-04 19:37:00,61.4,57.5,29.78,NNW,344,3.0,3.0,87,0.00,,,0.03,0,WeatherCatV1.21B27,2013-10-04 23:37:00,
2013-10-04 19:42:00,61.3,57.4,29.79,NNW,342,0.0,1.0,87,0.00,,,0.03,0,WeatherCatV1.21B27,2013-10-04 23:42:00,
2013-10-04 19:47:00,61.2,57.3,29.79,NW,323,0.0,1.0,87,0.00,,,0.03,0,WeatherCatV1.21B27,2013-10-04 23:47:00,
2013-10-04 19:52:00,61.0,57.1,29.79,NW,323,0.0,0.0,87,0.00,,,0.03,0,WeatherCatV1.21B27,2013-10-04 23:52:00,
2013-10-04 19:57:00,60.9,57.0,29.79,NW,323,0.0,0.0,87,0.00,,,0.03,0,WeatherCatV1.21B27,2013-10-04 23:57:00,
2013-10-04 20:02:00,60.8,57.2,29.80,NW,323,0.0,0.0,88,0.00,,,0.03,0,WeatherCatV1.21B27,2013-10-05 00:02:00,
2013-10-04 20:07:00,60.8,57.2,29.80,NW,323,0.0,0.0,88,0.00,,,0.03,0,WeatherCatV1.21B27,2013-10-05 00:07:00,
2013-10-04 20:12:00,60.7,57.1,29.79,NW,323,0.0,0.0,88,0.00,,,0.03,0,WeatherCatV1.21B27,2013-10-05 00:12:00,
2013-10-04 20:17:00,60.6,57.0,29.79,NW,323,0.0,0.0,88,0.00,,,0.03,0,WeatherCatV1.21B27,2013-10-05 00:17:00,
2013-10-04 20:22:00,60.5,56.9,29.79,NW,323,0.0,0.0,88,0.00,,,0.03,0,WeatherCatV1.21B27,2013-10-05 00:22:00,
2013-10-04 20:27:00,60.4,56.8,29.79,NW,323,0.0,0.0,88,0.00,,,0.03,0,WeatherCatV1.21B27,2013-10-05 00:27:00,
2013-10-04 20:32:00,60.3,56.7,29.79,NW,323,0.0,0.0,88,0.00,,,0.03,0,WeatherCatV1.21B27,2013-10-05 00:32:00,
2013-10-04 20:37:00,60.3,56.7,29.79,NW,323,0.0,0.0,88,0.00,,,0.03,0,WeatherCatV1.21B27,2013-10-05 00:37:00,
2013-10-04 20:42:00,60.2,56.6,29.79,NW,323,0.0,0.0,88,0.00,,,0.03,0,WeatherCatV1.21B27,2013-10-05 00:42:00,
2013-10-04 20:47:00,60.2,56.6,29.79,NW,323,0.0,0.0,88,0.00,,,0.03,0,WeatherCatV1.21B27,2013-10-05 00:47:00,
2013-10-04 20:52:00,60.1,56.5,29.79,NW,323,0.0,0.0,88,0.00,,,0.03,0,WeatherCatV1.21B27,2013-10-05 00:52:00,
2013-10-04 20:57:00,60.1,56.5,29.79,NW,323,0.0,0.0,88,0.00,,,0.03,0,WeatherCatV1.21B27,2013-10-05 00:57:00,
2013-10-04 21:02:00,60.0,56.4,29.79,NW,323,0.0,0.0,88,0.00,,,0.03,0,WeatherCatV1.21B27,2013-10-05 01:02:00,
2013-10-04 21:07:00,60.0,56.4,29.80,NW,323,0.0,0.0,88,0.00,,,0.03,0,WeatherCatV1.21B27,2013-10-05 01:07:00,
2013-10-04 21:12:00,60.0,56.4,29.80,NW,323,0.0,0.0,88,0.00,,,0.03,0,WeatherCatV1.21B27,2013-10-05 01:12:00,
2013-10-04 21:17:00,60.0,56.4,29.80,NW,323,0.0,0.0,88,0.00,,,0.03,0,WeatherCatV1.21B27,2013-10-05 01:17:00,
2013-10-04 21:22:00,60.0,56.4,29.79,NW,323,0.0,0.0,88,0.00,,,0.03,0,WeatherCatV1.21B27,2013-10-05 01:22:00,
2013-10-04 21:27:00,60.0,56.7,29.80,NW,323,0.0,0.0,89,0.00,,,0.03,0,WeatherCatV1.21B27,2013-10-05 01:27:00,
2013-10-04 21:32:00,60.0,56.7,29.80,NW,323,0.0,0.0,89,0.00,,,0.03,0,WeatherCatV1.21B27,2013-10-05 01:32:00,
2013-10-04 21:37:00,60.0,56.7,29.80,NW,323,0.0,0.0,89,0.00,,,0.03,0,WeatherCatV1.21B27,2013-10-05 01:37:00,
2013-10-04 21:42:00,60.0,56.7,29.80,NW,323,0.0,0.0,89,0.00,,,0.03,0,WeatherCatV1.21B27,2013-10-05 01:42:00,
2013-10-04 21:47:00,59.9,56.7,29.80,NW,323,0.0,0.0,89,0.00,,,0.03,0,WeatherCatV1.21B27,2013-10-05 01:47:00,
2013-10-04 21:52:00,59.9,56.7,29.80,NW,323,0.0,0.0,89,0.00,,,0.03,0,WeatherCatV1.21B27,2013-10-05 01:52:00,
2013-10-04 21:57:00,59.9,56.7,29.80,NW,323,0.0,0.0,89,0.00,,,0.03,0,WeatherCatV1.21B27,2013-10-05 01:57:00,
2013-10-04 22:02:00,59.9,56.7,29.80,NW,323,0.0,0.0,89,0.00,,,0.03,0,WeatherCatV1.21B27,2013-10-05 02:02:00,
2013-10-04 22:07:00,59.8,56.5,29.80,NW,323,0.0,0.0,89,0.00,,,0.03,0,WeatherCatV1.21B27,2013-10-05 02:07:00,
2013-10-04 22:12:00,59.8,56.5,29.80,NW,323,0.0,0.0,89,0.00,,,0.03,0,WeatherCatV1.21B27,2013-10-05 02:12:00,
2013-10-04 22:17:00,59.6,56.3,29.80,NW,323,0.0,0.0,89,0.00,,,0.03,0,WeatherCatV1.21B27,2013-10-05 02:17:00,
2013-10-04 22:22:00,59.6,56.3,29.80,NW,323,0.0,0.0,89,0.00,,,0.03,0,WeatherCatV1.21B27,2013-10-05 02:22:00,
2013-10-04 22:27:00,59.5,56.2,29.80,NW,323,0.0,0.0,89,0.00,,,0.03,0,WeatherCatV1.21B27,2013-10-05 02:27:00,
2013-10-04 22:32:00,59.4,56.2,29.80,NW,323,0.0,0.0,89,0.00,,,0.03,0,WeatherCatV1.21B27,2013-10-05 02:32:00,
2013-10-04 22:37:00,59.3,56.0,29.80,NW,323,0.0,0.0,89,0.00,,,0.03,0,WeatherCatV1.21B27,2013-10-05 02:37:00,
2013-10-04 22:42:00,59.1,55.9,29.80,NW,323,0.0,0.0,89,0.00,,,0.03,0,WeatherCatV1.21B27,2013-10-05 02:42:00,
2013-10-04 22:47:00,59.0,55.8,29.80,NW,323,0.0,0.0,89,0.00,,,0.03,0,WeatherCatV1.21B27,2013-10-05 02:47:00,
2013-10-04 22:52:00,59.0,55.8,29.80,NW,323,0.0,0.0,89,0.00,,,0.03,0,WeatherCatV1.21B27,2013-10-05 02:52:00,
2013-10-04 22:57:00,59.0,55.8,29.80,NW,323,0.0,0.0,89,0.00,,,0.03,0,WeatherCatV1.21B27,2013-10-05 02:57:00,
2013-10-04 23:02:00,59.0,55.8,29.80,NW,323,0.0,0.0,89,0.00,,,0.03,0,WeatherCatV1.21B27,2013-10-05 03:02:00,
2013-10-04 23:07:00,59.0,55.8,29.80,NW,323,0.0,0.0,89,0.00,,,0.03,0,WeatherCatV1.21B27,2013-10-05 03:07:00,
2013-10-04 23:12:00,59.0,55.8,29.80,NW,323,0.0,0.0,89,0.00,,,0.03,0,WeatherCatV1.21B27,2013-10-05 03:12:00,
2013-10-04 23:17:00,59.0,55.8,29.80,NW,323,0.0,0.0,89,0.00,,,0.03,0,WeatherCatV1.21B27,2013-10-05 03:17:00,
2013-10-04 23:22:00,59.0,56.1,29.80,NW,323,0.0,0.0,90,0.00,,,0.03,0,WeatherCatV1.21B27,2013-10-05 03:22:00,
2013-10-04 23:27:00,59.0,56.1,29.80,NW,323,0.0,0.0,90,0.00,,,0.03,0,WeatherCatV1.21B27,2013-10-05 03:27:00,
2013-10-04 23:32:00,59.0,56.1,29.80,NW,323,0.0,0.0,90,0.00,,,0.03,0,WeatherCatV1.21B27,2013-10-05 03:32:00,
2013-10-04 23:37:00,59.0,56.1,29.80,NW,323,0.0,0.0,90,0.00,,,0.03,0,WeatherCatV1.21B27,2013-10-05 03:37:00,
2013-10-04 23:42:00,59.0,56.1,29.80,NW,323,0.0,0.0,90,0.00,,,0.03,0,WeatherCatV1.21B27,2013-10-05 03:42:00,
2013-10-04 23:47:00,59.0,56.1,29.80,NW,323,0.0,0.0,90,0.00,,,0.03,0,WeatherCatV1.21B27,2013-10-05 03:47:00,
2013-10-04 23:52:00,59.0,56.1,29.80,NW,323,0.0,0.0,90,0.00,,,0.03,0,WeatherCatV1.21B27,2013-10-05 03:52:00,
2013-10-04 23:57:00,58.9,56.0,29.80,NW,323,0.0,0.0,90,0.00,,,0.03,0,WeatherCatV1.21B27,2013-10-05 03:57:00,